CONNECTA IOT-1 (60472 NORAD) Tracking and Keplerian Element Data

This shows tracking and keplerian element data for the satellite.

Feedback or suggestion? Click here.




ElementValue
Catalog60472
NameCONNECTA IOT-1
Epoch Orbit864
Epoch Day286.79612647
Epoch Year2024
RAAN1.3975
Inclination97.4378
Eccentricity0.0001057
Argument of Perigee231.3172
Mean Anonmoly128.7968
Mean Motion15.18361774
Decay Rate0.00010254
L11 60472U 24149E 24286.79612647 .00010254 00000+0 50207-3 0 9991
L22 60472 97.4378 1.3975 0001057 231.3172 128.7968 15.18361774 8648



Live tracking and technical data element details for CONNECTA IOT-1 (NORAD 60472). CONNECTA IOT-1 can be tracked NOW for your location showing map with azimuth and elevation plus other details from your city location.







IsCatalogInMostPopularTable: catalog: 60472, numindb: 4
Update: records affected: 1



GetName: 60472 CONNECTA IOT-1

Hit Count: updated at: Wed, 04 Dec 2024 18:30:30 GMT